[[{"header":{"parameterUnit":"m.s-1","parameterCategory":1,"la1":30.2991,"la2":30.254,"lo1":-89.0895,"lo2":-89.0444,"dy":0.0017,"dx":0.0017,"nx":28,"ny":28,"refTime":"2024-05-02T03:00:00:Z","depth":0,"parameterNumber":2,"parameterNumberName":"U-component_of_WINDS"},"data":[0,0,0,0,0,0,0,0,0,0,0,0,0,0,0,0,0,0,0,0,0,0,0,0,0,0,0,0,0,0,0,0,0,0,0,0,0,0,0,0,0,0,0,0,0,0,0,0,0,0,0,0,0,0,0,0,0,0,-4.0081,-4.008,0,-4.0023,-4.0022,-4.0022,-3.9926,-3.9924,-3.9923,-3.9921,-3.9861,-3.9861,-3.9861,0,0,0,0,0,0,0,0,0,0,0,0,0,-4.0111,-4.0111,-4.0081,-4.008,-4.008,-4.0023,-4.0022,-4.0021,-3.9927,-3.9924,-3.9922,-3.992,-3.9861,-3.9861,-3.9861,0,0,0,0,0,0,0,0,0,0,0,0,0,-4.008,-4.0111,-4.0081,-4.0025,-4.002,-4.0023,-4.0022,-4.0021,-3.9927,-3.9924,-3.9922,-3.9919,-3.9861,-3.9861,-3.9861,-3.9913,0,0,-3.9861,-3.9861,0,0,0,0,0,0,0,0,-4.0082,-4.0079,-4.0034,-4.0029,-4.0023,-3.9979,-4.001,-3.9985,-3.9928,-3.9962,-3.9921,-3.9918,-3.9902,-3.9899,-3.9893,-3.991,-3.9908,-3.9861,-3.9861,-3.9861,-3.9861,0,0,0,0,0,0,0,-4.0084,-4.0081,-4.0058,-4.0034,-4.0027,-4.0004,-3.9996,-4.0005,-3.9948,-3.9959,-3.9952,-3.9946,-3.9898,-3.9894,-3.9891,-3.9907,-3.9861,-3.9861,-3.9861,-3.9861,-3.9965,-3.9968,0,0,0,0,0,0,-4.0094,-4.0083,-4.006,-4.0056,-4.0047,-4.0005,-3.9997,-3.9996,-3.9947,-3.9937,-3.9949,-3.9942,-3.9895,-3.9891,-3.9889,-3.9946,-3.9861,-3.9861,-3.9861,-3.9963,-3.9966,-3.9969,0,0,0,0,0,0,-4.0095,-4.0093,-4.0062,-4.0068,-4.0062,-4.0008,-4.0007,-3.9996,-3.9991,-3.9939,-3.9929,-3.9954,-3.9893,-3.9889,-3.9908,-3.9943,-3.9861,-3.9861,-3.9959,-3.9964,-3.9968,-4.0063,0,0,0,0,0,0,-4.0097,-4.0094,-4.0113,-4.0069,-4.0062,-4.0082,-4.0009,-3.9997,-3.9991,-3.9982,-3.9942,-3.9932,-3.989,-3.9909,-3.9908,-3.9942,-3.9861,-3.9956,-3.9961,-3.9966,-4.0057,-4.007,-4.0082,0,0,0,0,0,-4.0098,-4.0142,-4.0114,-4.0112,-4.0085,-4.0085,-4.0081,-4.0031,-3.9995,-4.0013,-3.9981,-3.9934,-3.9941,-3.9911,-3.991,-3.9944,-3.9953,-3.996,-3.9966,-4.0051,-4.0068,-4.0082,0,0,0,0,0,0,-4.019,-4.0135,-4.0104,-4.0135,-4.0115,-4.0068,-4.009,-4.005,-4.004,-4.0032,-3.9972,-3.9964,-3.9991,-3.997,-3.9939,-3.9993,-3.994,-3.9946,-4.0005,-4.002,-4.0033,-4.0036,-3.9861,0,0,0,0,0,-4.0215,-4.0219,-4.0171,-4.0203,-4.0195,-4.0145,-4.0143,-4.0107,-4.0084,-4.0075,-4.0044,-4.0023,-4.0021,-4.002,-4.0015,-4.0055,-4.0044,-4.0078,-4.0091,-4.0101,-4.0106,-4.0126,-4.014,-3.999,-3.9989,-3.9989,0,0,-4.0264,-4.0234,-4.024,-4.022,-4.0201,-4.0207,-4.0138,-4.0147,-4.0151,-4.0076,-4.0092,-4.0069,-4.0043,-4.0073,-4.0085,-4.0056,-4.0146,-4.0109,-4.0118,-4.0117,-4.0134,-4.0148,-4.0161,-3.9994,-3.9993,-3.9992,0,0,-4.0356,-4.0335,-4.0359,-4.0342,-4.0314,-4.0281,-4.0287,-4.0247,-4.0229,-4.0245,-4.0189,-4.0194,-4.0191,-4.0174,-4.0165,-4.0256,-4.0212,-4.0256,-4.032,-4.034,-4.0352,-4.0362,-4.0393,-4.0405,-4.0262,-4.0263,-4.0263,0,-4.042,-4.0427,-4.0376,-4.0389,-4.0382,-4.0317,-4.0341,-4.0327,-4.0299,-4.0296,-4.0265,-4.0261,-4.0239,-4.0264,-4.0287,-4.0282,-4.0287,-4.0258,-4.0355,-4.0364,-4.0373,-4.0402,-4.0414,-4.0268,-4.0267,-4.0267,-4.0266,0,-4.0507,-4.0513,-4.0536,-4.0511,-4.0507,-4.0526,-4.0479,-4.0481,-4.0448,-4.0418,-4.0436,-4.0408,-4.0396,-4.04,-4.0366,-4.0421,-4.0404,-4.0366,-4.031,-4.0394,-4.042,-4.043,-4.0276,-4.0274,-4.0272,-4.0271,0,0,-4.0651,-4.0601,-4.061,-4.0598,-4.0565,-4.0568,-4.0585,-4.0574,-4.0577,-4.0562,-4.0573,-4.0575,-4.0539,-4.0529,-4.0494,-4.0512,-4.0585,-4.0471,-4.0469,-4.0491,-4.0643,-4.067,-4.0684,-4.0558,-4.056,-4.0561,-4.0644,0,-4.0734,-4.0759,-4.0715,-4.075,-4.0755,-4.0696,-4.071,-4.0692,-4.0666,-4.0667,-4.0639,-4.064,-4.0594,-4.0587,-4.0603,-4.0573,-4.0614,-4.0567,-4.0567,-4.0567,-4.0572,-4.0697,-4.0726,-4.0805,-4.0654,-4.0656,-4.0657,0,-4.0833,-4.0823,-4.0859,-4.0824,-4.0825,-4.0839,-4.0826,-4.0828,-4.0807,-4.0787,-4.0778,-4.0738,-4.0752,-4.0702,-4.0721,-4.069,-4.0688,-4.0674,-4.0676,-4.0671,-4.0615,-4.0694,-4.0829,-4.0841,-4.0673,-4.0672,-4.0671,0,-4.0932,-4.0928,-4.0949,-4.0941,-4.0902,-4.0913,-4.0898,-4.0874,-4.0871,-4.0861,-4.0858,-4.085,-4.0845,-4.084,-4.0799,-4.0766,-4.0823,-4.0769,-4.0806,-4.0807,-4.0817,-4.0816,-4.0952,-4.0822,-4.0822,-4.0822,-4.0821,0,-4.1027,-4.1051,-4.0993,-4.1005,-4.1031,-4.0982,-4.1009,-4.0987,-4.0967,-4.0975,-4.0924,-4.0933,-4.0879,-4.0882,-4.085,-4.0871,-4.0869,-4.0853,-4.0844,-4.0856,-4.0858,-4.0851,-4.0844,-4.0825,-4.0824,-4.0823,-4.0823,0,-4.114,-4.1103,-4.1121,-4.1084,-4.1075,-4.1095,-4.1063,-4.1074,-4.1047,-4.1057,-4.1057,-4.1014,-4.1015,-4.0975,-4.0968,-4.0946,-4.098,-4.0962,-4.0987,-4.098,-4.1018,-4.1014,-4.1152,-4.1167,-4.103,-4.1032,-4.1033,0,-4.1202,-4.1219,-4.1184,-4.1186,-4.1173,-4.1176,-4.1173,-4.1128,-4.1127,-4.1106,-4.1119,-4.1116,-4.1111,-4.1116,-4.1084,-4.1079,-4.1059,-4.1108,-4.1057,-4.1069,-4.1057,-4.1055,-4.1056,-4.1117,-4.1118,-4.112,-4.1121,0,-4.1315,-4.1296,-4.1293,-4.1286,-4.1284,-4.1276,-4.1264,-4.1268,-4.1219,-4.1221,-4.1222,-4.1218,-4.1212,-4.1209,-4.1199,-4.1183,-4.1144,-4.1138,-4.1146,-4.1156,-4.1169,-4.1161,-4.1012,-4.1134,-4.1133,-4.1132,-4.1131,-4.113,-4.1402,-4.1414,-4.1392,-4.1392,-4.1379,-4.137,-4.1378,-4.1353,-4.1353,-4.1344,-4.1318,-4.1324,-4.1304,-4.1286,-4.1274,-4.1278,-4.1253,-4.1265,-4.1267,-4.127,-4.1277,-4.1172,-4.1276,-4.1276,-4.1275,-4.1275,-4.1275,0,-4.151,-4.1494,-4.1495,-4.148,-4.1481,-4.1446,-4.1432,-4.1434,-4.144,-4.1425,-4.1422,-4.1424,-4.1422,-4.1392,-4.1387,-4.1396,-4.1378,-4.1396,-4.1393,-4.139,-4.13,-4.1292,-4.1411,-4.1411,-4.1411,-4.1411,-4.1411,-4.1411,-4.1566,-4.1585,-4.1565,-4.1577,-4.1561,-4.1566,-4.1561,-4.1553,-4.1541,-4.1545,-4.1544,-4.1525,-4.1504,-4.1498,-4.1495,-4.1487,-4.1486,-4.151,-4.1495,-4.141,-4.1397,-4.1384,-4.1376,-4.1511,-4.1511,-4.1584,-4.1585,-4.1586]},{"header":{"parameterUnit":"m.s-1","parameterCategory":1,"la1":30.2991,"la2":30.254,"lo1":-89.0895,"lo2":-89.0444,"dy":0.0017,"dx":0.0017,"nx":28,"ny":28,"refTime":"2024-05-02T03:00:00:Z","depth":0,"parameterNumber":3,"parameterNumberName":"V-component_of_WINDS"},"data":[0,0,0,0,0,0,0,0,0,0,0,0,0,0,0,0,0,0,0,0,0,0,0,0,0,0,0,0,0,0,0,0,0,0,0,0,0,0,0,0,0,0,0,0,0,0,0,0,0,0,0,0,0,0,0,0,0,0,3.5673,3.5673,0,3.5682,3.5683,3.5683,3.5708,3.5709,3.5709,3.571,3.5716,3.5716,3.5716,0,0,0,0,0,0,0,0,0,0,0,0,0,3.5675,3.5675,3.5673,3.5673,3.5673,3.5682,3.5683,3.5683,3.5708,3.5709,3.571,3.571,3.5716,3.5716,3.5715,0,0,0,0,0,0,0,0,0,0,0,0,0,3.5678,3.5675,3.5673,3.5687,3.5689,3.5682,3.5683,3.5683,3.5708,3.5709,3.571,3.5711,3.5716,3.5716,3.5715,3.5695,0,0,3.5714,3.5714,0,0,0,0,0,0,0,0,3.5678,3.5678,3.5685,3.5686,3.5688,3.5695,3.5686,3.5687,3.5708,3.5701,3.571,3.5711,3.5708,3.5709,3.5708,3.5695,3.5696,3.5714,3.5713,3.5713,3.5713,0,0,0,0,0,0,0,3.5678,3.5678,3.5677,3.5685,3.5687,3.5692,3.5694,3.5686,3.5699,3.5701,3.5703,3.5704,3.5709,3.5709,3.5709,3.5696,3.5714,3.5713,3.5713,3.5713,3.5667,3.5666,0,0,0,0,0,0,3.5676,3.5678,3.5676,3.5677,3.5685,3.5692,3.5693,3.5692,3.57,3.5702,3.5703,3.5705,3.5709,3.5709,3.5709,3.5686,3.5713,3.5713,3.5712,3.5668,3.5667,3.5666,0,0,0,0,0,0,3.5676,3.5676,3.5676,3.5678,3.5678,3.5691,3.5689,3.5692,3.5691,3.5701,3.5704,3.5701,3.571,3.571,3.5699,3.5686,3.5712,3.5712,3.5669,3.5668,3.5666,3.564,0,0,0,0,0,0,3.5676,3.5675,3.5668,3.5678,3.5678,3.5666,3.5688,3.5691,3.5691,3.5693,3.5699,3.5701,3.5711,3.5699,3.5698,3.5686,3.5712,3.567,3.5668,3.5667,3.5642,3.5637,3.5634,0,0,0,0,0,3.5676,3.566,3.5668,3.5668,3.567,3.5666,3.5666,3.5678,3.569,3.5682,3.5689,3.5701,3.5688,3.5698,3.5697,3.5685,3.5671,3.5669,3.5667,3.5643,3.5638,3.5634,0,0,0,0,0,0,3.5647,3.5661,3.567,3.5657,3.566,3.567,3.5661,3.5672,3.5671,3.5674,3.5688,3.5689,3.5676,3.5679,3.569,3.5666,3.5682,3.5679,3.5664,3.5659,3.5656,3.5655,3.5711,0,0,0,0,0,3.564,3.5636,3.5648,3.5635,3.5636,3.5648,3.5647,3.5656,3.566,3.5661,3.5667,3.5669,3.5665,3.5662,3.566,3.5642,3.5644,3.5633,3.563,3.5626,3.5624,3.5615,3.5611,3.5659,3.5659,3.5659,0,0,3.5624,3.5631,3.5627,3.5629,3.5633,3.5628,3.5649,3.5643,3.5639,3.5659,3.565,3.5654,3.5657,3.5643,3.5637,3.5645,3.5611,3.5624,3.5621,3.5621,3.5613,3.5608,3.5604,3.5658,3.5658,3.5659,0,0,3.5592,3.5597,3.5587,3.559,3.5596,3.5604,3.5602,3.561,3.5614,3.5605,3.562,3.5616,3.5609,3.5611,3.5611,3.5581,3.5592,3.5579,3.5559,3.5551,3.5547,3.5543,3.5532,3.5528,3.5577,3.5577,3.5577,0,3.5571,3.5565,3.558,3.5573,3.5573,3.5593,3.5582,3.5584,3.5588,3.5588,3.5597,3.559,3.5594,3.5581,3.5573,3.5573,3.557,3.5579,3.5546,3.5543,3.554,3.553,3.5526,3.5576,3.5576,3.5576,3.5576,0,3.5539,3.5534,3.5525,3.553,3.553,3.5521,3.5534,3.5531,3.5541,3.5548,3.5538,3.5543,3.5542,3.554,3.5548,3.5528,3.5533,3.5544,3.556,3.5534,3.5524,3.552,3.5573,3.5574,3.5574,3.5575,0,0,3.5489,3.5502,3.5499,3.5501,3.5509,3.5506,3.5498,3.5498,3.5495,3.5498,3.5491,3.5486,3.5497,3.5497,3.5506,3.5498,3.5474,3.5511,3.5511,3.5503,3.5451,3.5442,3.5438,3.5482,3.5481,3.548,3.5451,0,3.5459,3.5447,3.546,3.5445,3.5441,3.546,3.5453,3.5457,3.5463,3.546,3.5467,3.5463,3.5478,3.5478,3.5472,3.5478,3.5464,3.5481,3.5475,3.5474,3.5473,3.5433,3.5423,3.5395,3.5447,3.5447,3.5446,0,3.5422,3.5424,3.5409,3.5418,3.5417,3.541,3.5412,3.5409,3.5414,3.5419,3.5419,3.5431,3.5423,3.544,3.5429,3.544,3.5439,3.5442,3.5441,3.544,3.5458,3.5431,3.5387,3.5382,3.5441,3.5441,3.5441,0,3.5387,3.5385,3.5376,3.5378,3.5388,3.5384,3.5388,3.5393,3.5392,3.5393,3.5393,3.5392,3.5392,3.5391,3.5402,3.5413,3.539,3.5407,3.5394,3.5393,3.5387,3.5387,3.5342,3.5387,3.5387,3.5387,3.5387,0,3.5352,3.5342,3.5361,3.5355,3.5344,3.536,3.5348,3.5354,3.5359,3.5354,3.537,3.5365,3.538,3.5376,3.5385,3.5375,3.5374,3.5378,3.538,3.5376,3.5376,3.5375,3.5377,3.5386,3.5386,3.5386,3.5387,0,3.5311,3.5323,3.5315,3.5326,3.5328,3.532,3.5329,3.5324,3.5332,3.5326,3.5325,3.5337,3.5334,3.5345,3.5343,3.5349,3.5334,3.5339,3.5333,3.5334,3.532,3.5321,3.5272,3.5266,3.5315,3.5314,3.5314,0,3.5288,3.5281,3.5291,3.529,3.5293,3.5291,3.529,3.5305,3.5304,3.5309,3.5303,3.5301,3.5301,3.5294,3.5302,3.5301,3.5307,3.529,3.5306,3.5303,3.5306,3.5306,3.5306,3.5286,3.5285,3.5285,3.5284,0,3.5245,3.5252,3.5251,3.5253,3.5252,3.5254,3.5257,3.5254,3.527,3.5268,3.5265,3.5265,3.5264,3.5262,3.5262,3.5266,3.5277,3.5279,3.5276,3.5272,3.5268,3.527,3.5323,3.528,3.528,3.5281,3.5281,3.5281,3.5213,3.5207,3.5214,3.5213,3.5217,3.5219,3.5215,3.5223,3.5221,3.5222,3.523,3.5226,3.5231,3.5233,3.5235,3.5232,3.5239,3.5235,3.5233,3.5232,3.523,3.5269,3.5232,3.5232,3.5232,3.5232,3.5232,0,3.5171,3.5176,3.5175,3.5179,3.5178,3.519,3.5194,3.5192,3.5188,3.5192,3.5192,3.5189,3.5187,3.5195,3.5194,3.519,3.5195,3.5189,3.5189,3.519,3.5223,3.5226,3.5185,3.5185,3.5185,3.5185,3.5185,3.5185,3.5149,3.5141,3.5148,3.5142,3.5147,3.5144,3.5145,3.5147,3.515,3.5146,3.5145,3.5151,3.5156,3.5156,3.5155,3.5157,3.5156,3.5148,3.5152,3.5183,3.5187,3.5192,3.5195,3.5148,3.5148,3.512,3.512,3.5119]}]]